Starlink 11501

operational
NORAD ID: 62268 Int'l Des: 2024-237 Owner: SPXS Country: US Constellation: starlink
LEOCIRCULAR

Über Starlink 11501

Beschreibung wird geladen...

Live-Position

3D-Globus wird geladen...

Nächste Überflüge

Höhenverlauf

Altitude vs Time

uPlot chart will show altitude changes over time

Zweizeiliger Elementsatz

1 62268U 24237B 25349.95166446 .00184589 00000-0 14073-2 0 9998
2 62268 43.0027 201.2508 0002326 277.6187 82.4417 15.70890923 59836
Epoch: 15. Dez. 2025 • Age: 27 hours

Aktueller Status

Höhe 355.9 km
Geschwindigkeit 7.70 km/s
Subsatellitenpunkt -4.95°S, 89.66°W
Startdatum 8. Dez. 2024
Alter 1 years
Typ internet

Technische Details

Klassifizierung Payload
Masse 960.00 kg
Trockenmasse 910.00 kg
Gesamtmasse 960.00 kg
Länge 0.30 m
Durchmesser 4.10 m
Spannweite 29.00 m
Form Box + pan
Hersteller SPXS
Bus-Typ Starlink V2MD
Phasenstatus In Orbit
Besitzer/Staat SPXS/US

Große Konstellationen

Loading constellations...